Location: Maynard F. Jordan Observatory
(44.9000°N, 68.6700°W)
Time: 07:44:02
(UTC-04:00)

Cosmos 2297 Rocket - Visible Passes

Search period start: 27 August 2016 00:00
Search period end: 06 September 2016 00:00
Orbit: 840 x 843 km, 71.0° (Epoch: 25 August)

Date Brightness Start Highest point End Pass type
(mag) Time Alt. Az. Time Alt. Az. Time Alt. Az.
27 Aug 3.3 20:53:13 10° NW 20:58:30 42° WSW 21:03:46 10° S visible
28 Aug 3.2 20:38:06 10° NW 20:43:26 44° WSW 20:48:45 10° S visible
29 Aug 3.2 20:22:57 10° NW 20:28:22 46° WSW 20:33:43 10° S visible
30 Aug 3.1 20:07:50 10° NW 20:13:17 49° WSW 20:18:41 10° S visible
31 Aug 3.1 19:52:44 10° NW 19:58:12 51° WSW 20:03:39 10° S visible
01 Sep 3.0 19:37:37 10° NW 19:43:08 54° WSW 19:48:37 10° S visible
